Location: Bazugues
(43.4465°N, 0.3432°E)
Time: 22:37:11
(UTC+00:00)

UNISAT 6 - Pass Details

Date: 19 May 2026
Orbit: 571 x 636 km, 97.8° (Epoch: 7 June)

Event Time Altitude Azimuth Distance (km) Brightness Sun altitude
Rises 02:10:37 0° 134° (SE) 2,907 ? -19.6°
Reaches altitude 10° 02:13:07 10° 121° (ESE) 1,996 ? -19.3°
Maximum altitude 02:16:38 24° 67° (ENE) 1,278 ? -19.0°
Drops below altitude 10° 02:20:06 10° 13° (NNE) 1,978 ? -18.6°
Sets 02:22:34 0° 0° (N) 2,876 ? -18.3°
